Date String (YYYY-MM-DD hh:mm:ss) UTC,Instrument flags,absolute air pressure of the measurement (hPa),sample flow rate (lpm),inlet stack bypass flow (lpm),air temperature of the measurement (°C),ambient temperature measured by the external sensor (°C),aerosol sample conditioner tube jacket temperature (°C),OPC LED temperature (°C),internal box temperature (°C),relative humidity of the measurement (%),span deviation,mass concentration of particles derived from Lorenz-Mie calculation of OPC scattering (μg/m³),mass concentration of particles derived from Lorenz-Mie calculation of OPC scattering (μg/m³),mass concentration of particles derived from Lorenz-Mie calculation of OPC scattering (μg/m³)
DateTimeUTC,F1_M11,P_M11,Q1_M11,Q2_M11,T1_M11,T2_M11,T3_M11,T4_M11,T5_M11,U1_M11,ZSPAN_M11,X0_M11,X2_M11,X1_M11
2024-03-27 04:00:00,SystemResetWarning,0822.9,5.00,000.00,018.9,018.1,000.0,027.7,020.7,18.7,0001.1,0011.01,0007.31,0006.96
2024-03-27 04:01:00,SystemResetWarning,0822.9,5.01,000.00,018.9,018.1,000.0,027.7,020.7,18.6,0001.2,0010.96,0007.29,0006.92
2024-03-27 04:02:00,SystemResetWarning,0823.1,5.01,000.00,018.9,018.1,000.0,027.6,020.7,18.5,0001.0,0010.63,0007.25,0006.86
2024-03-27 04:03:00,SystemResetWarning,0823.1,5.00,000.00,018.9,018.1,000.0,027.6,020.7,18.5,0001.0,0010.55,0007.17,0006.78
2024-03-27 04:04:00,SystemResetWarning,0823.0,5.00,000.00,018.9,018.1,000.0,027.6,020.7,18.8,0001.3,0010.56,0007.14,0006.76
2024-03-27 04:05:00,SystemResetWarning,0822.9,5.00,000.00,018.9,018.1,000.0,027.6,020.7,19.1,0001.4,0010.64,0007.16,0006.75
2024-03-27 04:06:00,SystemResetWarning,0822.8,5.00,000.00,018.9,018.1,000.0,027.6,020.8,19.2,0001.6,0010.49,0007.11,0006.74
2024-03-27 04:07:00,SystemResetWarning,0823.2,4.99,000.00,018.9,018.2,000.0,027.6,020.8,19.0,0001.7,0010.34,0007.11,0006.75
2024-03-27 04:08:00,SystemResetWarning,0822.9,5.00,000.00,018.9,018.2,000.0,027.6,020.8,18.9,0001.5,0009.79,0007.15,0006.77
2024-03-27 04:09:00,SystemResetWarning,0823.0,5.00,000.00,018.9,018.2,000.0,027.6,020.8,18.9,0001.4,0009.77,0007.21,0006.81
2024-03-27 04:10:00,SystemResetWarning,0822.9,5.00,000.00,018.9,018.2,000.0,027.6,020.8,18.9,0000.9,0009.78,0007.29,0006.88
2024-03-27 04:11:00,SystemResetWarning,0823.1,5.01,000.00,019.0,018.2,000.0,027.6,020.8,18.9,0000.4,0010.11,0007.39,0006.98
2024-03-27 04:12:00,SystemResetWarning,0822.9,5.01,000.00,019.0,018.2,000.0,027.6,020.8,18.8,0000.8,0010.91,0007.49,0007.08
2024-03-27 04:13:00,SystemResetWarning,0822.9,5.00,000.00,019.0,018.3,000.0,027.6,020.8,18.6,0001.1,0011.54,0007.55,0007.15
2024-03-27 04:14:00,SystemResetWarning,0823.0,4.99,000.00,019.0,018.3,000.0,027.6,020.8,18.6,0000.8,0012.12,0007.62,0007.20
2024-03-27 04:15:00,SystemResetWarning,0823.2,4.98,000.00,019.0,018.3,000.0,027.6,020.8,18.7,0000.6,0012.24,0007.69,0007.26
2024-03-27 04:16:00,SystemResetWarning,0823.1,5.00,000.00,019.0,018.2,000.0,027.6,020.8,18.7,0000.4,0012.16,0007.66,0007.26
2024-03-27 04:17:00,SystemResetWarning,0822.9,5.01,000.00,019.0,018.2,000.0,027.6,020.8,18.8,0000.5,0012.25,0007.63,0007.21
2024-03-27 04:18:00,SystemResetWarning,0823.0,5.00,000.00,019.0,018.2,000.0,027.6,020.8,18.9,0000.6,0012.61,0007.59,0007.17
2024-03-27 04:19:00,SystemResetWarning,0822.9,4.99,000.00,019.0,018.2,000.0,027.6,020.7,18.9,0001.0,0012.56,0007.53,0007.12
2024-03-27 04:20:00,SystemResetWarning,0823.0,4.99,000.00,018.9,018.1,000.0,027.6,020.7,18.9,0001.2,0012.47,0007.45,0007.05
2024-03-27 04:21:00,SystemResetWarning,0823.1,5.00,000.00,018.9,018.1,000.0,027.6,020.7,18.7,0001.2,0012.37,0007.31,0006.92
2024-03-27 04:22:00,SystemResetWarning,0823.2,5.01,000.00,018.9,018.1,000.0,027.6,020.7,18.7,0001.5,0012.13,0007.20,0006.78
2024-03-27 04:23:00,SystemResetWarning,0822.8,5.01,000.00,018.9,018.0,000.0,027.6,020.7,18.6,0001.3,0011.34,0007.04,0006.62
2024-03-27 04:24:00,SystemResetWarning,0822.9,5.00,000.00,018.9,018.0,000.0,027.6,020.6,18.6,0001.2,0010.63,0006.90,0006.51
2024-03-27 04:25:00,SystemResetWarning,0822.9,4.99,000.00,018.9,018.0,000.0,027.5,020.6,18.6,0001.5,0009.91,0006.81,0006.46
2024-03-27 04:26:00,SystemResetWarning,0822.9,5.00,000.00,018.8,018.0,000.0,027.5,020.6,18.6,0001.5,0009.73,0006.66,0006.33
2024-03-27 04:27:00,SystemResetWarning,0822.9,5.00,000.00,018.8,017.9,000.0,027.5,020.6,18.6,0001.8,0009.60,0006.53,0006.20
2024-03-27 04:28:00,SystemResetWarning,0822.9,5.00,000.00,018.8,017.9,000.0,027.5,020.6,18.5,0002.1,0009.45,0006.44,0006.09
2024-03-27 04:29:00,SystemResetWarning,0823.1,4.99,000.00,018.8,017.9,000.0,027.5,020.6,18.5,0002.3,0008.99,0006.35,0005.98
2024-03-27 04:30:00,SystemResetWarning,0822.9,5.00,000.00,018.8,017.9,000.0,027.5,020.5,18.4,0002.5,0008.94,0006.26,0005.89
2024-03-27 04:31:00,SystemResetWarning,0823.0,5.00,000.00,018.8,017.9,000.0,027.5,020.5,18.4,0002.4,0009.77,0006.13,0005.78
2024-03-27 04:32:00,SystemResetWarning,0823.1,5.00,000.00,018.8,017.9,000.0,027.5,020.5,18.3,0002.4,0009.84,0006.05,0005.70
2024-03-27 04:33:00,SystemResetWarning,0822.9,4.99,000.00,018.7,017.9,000.0,027.5,020.5,18.2,0002.3,0010.02,0005.99,0005.64
2024-03-27 04:34:00,SystemResetWarning,0822.9,5.00,000.00,018.7,017.8,000.0,027.4,020.5,18.1,0002.3,0010.13,0005.93,0005.59
2024-03-27 04:35:00,SystemResetWarning,0822.9,5.00,000.00,018.7,017.8,000.0,027.4,020.5,18.0,0001.3,0010.20,0005.92,0005.56
2024-03-27 04:36:00,SystemResetWarning,0822.9,5.00,000.00,018.7,017.8,000.0,027.4,020.4,17.9,0002.4,0010.25,0005.90,0005.53
2024-03-27 04:37:00,SystemResetWarning,0822.9,5.00,000.00,018.7,017.8,000.0,027.4,020.4,17.8,0002.8,0010.24,0005.92,0005.54
2024-03-27 04:38:00,SystemResetWarning,0822.9,5.01,000.00,018.7,017.8,000.0,027.4,020.4,17.7,0002.0,0010.27,0005.98,0005.59
2024-03-27 04:39:00,SystemResetWarning,0823.0,5.00,000.00,018.7,017.8,000.0,027.4,020.4,17.8,0002.9,0010.26,0005.99,0005.63
2024-03-27 04:40:00,SystemResetWarning,0822.9,5.00,000.00,018.6,017.8,000.0,027.4,020.4,17.8,0002.4,0010.69,0005.98,0005.62
2024-03-27 04:41:00,SystemResetWarning,0822.9,5.00,000.00,018.6,017.7,000.0,027.4,020.4,17.9,0001.8,0010.84,0005.94,0005.60
2024-03-27 04:42:00,SystemResetWarning,0823.1,5.00,000.00,018.6,017.7,000.0,027.3,020.3,17.8,0001.7,0009.96,0005.96,0005.61
2024-03-27 04:43:00,SystemResetWarning,0822.9,5.00,000.00,018.6,017.6,000.0,027.3,020.3,17.5,0001.8,0009.95,0005.95,0005.58
2024-03-27 04:44:00,SystemResetWarning,0823.0,4.99,000.00,018.6,017.6,000.0,027.3,020.3,17.5,0001.8,0009.78,0005.91,0005.54
2024-03-27 04:45:00,SystemResetWarning,0823.0,5.00,000.00,018.5,017.6,000.0,027.3,020.2,17.5,0001.5,0009.45,0005.85,0005.51
2024-03-27 04:46:00,SystemResetWarning,0823.0,5.00,000.00,018.5,017.5,000.0,027.3,020.2,17.5,0001.5,0009.36,0005.81,0005.45
2024-03-27 04:47:00,SystemResetWarning,0823.0,5.00,000.00,018.5,017.5,000.0,027.3,020.2,17.5,0001.1,0009.25,0005.74,0005.38
2024-03-27 04:48:00,SystemResetWarning,0823.1,5.00,000.00,018.5,017.5,000.0,027.2,020.2,17.5,0000.0,0009.15,0005.62,0005.26
2024-03-27 04:49:00,SystemResetWarning,0823.0,5.00,000.00,018.4,017.5,000.0,027.2,020.1,17.5,0000.1,0009.54,0005.46,0005.11
2024-03-27 04:50:00,SystemResetWarning,0823.0,5.00,000.00,018.4,017.5,000.0,027.2,020.1,17.4,-000.1,0010.04,0005.37,0005.00
2024-03-27 04:51:00,SystemResetWarning,0823.0,5.01,000.00,018.4,017.5,000.0,027.2,020.1,17.6,0000.0,0009.66,0005.34,0004.95
2024-03-27 04:52:00,SystemResetWarning,0823.0,5.00,000.00,018.4,017.5,000.0,027.2,020.1,17.6,0000.0,0009.44,0005.34,0004.94
2024-03-27 04:53:00,SystemResetWarning,0823.0,5.00,000.00,018.4,017.5,000.0,027.2,020.1,17.5,0000.0,0009.48,0005.32,0004.90
2024-03-27 04:54:00,SystemResetWarning,0823.0,5.00,000.00,018.4,017.5,000.0,027.2,020.1,17.4,0000.0,0009.19,0005.26,0004.86
2024-03-27 04:55:00,SystemResetWarning,0823.0,5.00,000.00,018.4,017.5,000.0,027.1,020.1,17.5,0000.0,0009.13,0005.25,0004.85
2024-03-27 04:56:00,SystemResetWarning,0823.0,5.00,000.00,018.3,017.4,000.0,027.1,020.1,17.4,0000.0,0009.07,0005.19,0004.80
2024-03-27 04:57:00,SystemResetWarning,0823.0,5.00,000.00,018.3,017.4,000.0,027.1,020.1,17.3,0000.0,0008.94,0005.10,0004.74
2024-03-27 04:58:00,SystemResetWarning,0823.0,5.00,000.00,018.3,017.4,000.0,027.1,020.0,17.2,0000.0,0008.88,0005.02,0004.68
2024-03-27 04:59:00,SystemResetWarning,0823.0,5.00,000.00,018.3,017.4,000.0,027.1,020.0,17.2,0000.0,0008.81,0004.96,0004.61
